Regional Weather Roundup
Issued by NWS

Home | Current Version | Previous Version | Graphics & Text | Print | Product List | Glossary On
Versions: 1 2 3 4 5 6 7 8 9 10 11 12 13 14 15 16 17 18 19 20 21 22 23 24 25 26 27 28 29 30 31 32 33 34 35 36 37 38 39 40 41 42 43 44 45 46 47 48 49 50
039
ASUS43 KLMK 281502
RWRKY
KENTUCKY REGIONAL WEATHER ROUNDUP
NATIONAL WEATHER SERVICE LOUISVILLE KY
1100 AM EDT WED SEP 28 2016

NOTE "FAIR" INDICATES FEW OR NO CLOUDS BELOW 12,000 FEET
WITH NO SIGNIFICANT WEATHER AND/OR OBSTRUCTIONS TO VISIBILITY.

KYZ001>023-026-027-061>063-070>075-281600-
WESTERN AND SOUTH CENTRAL KENTUCKY

CITY           SKY/WX    TMP DP  RH WIND       PRES   REMARKS
PADUCAH        CLOUDY    71  52  50 W10       29.84S
HENDERSON      MOSUNNY   70  52  52 SW12      29.81S
OWENSBORO      PTSUNNY  N/A N/A N/A W14       29.82R
HOPKINSVILLE   SUNNY     73  52  48 SW17      29.87S
BOWLING GREEN  PTSUNNY   73  49  42 SW14      29.88F
GLASGOW        MOSUNNY   66  50  55 SW8       29.90S
$$

KYZ024-025-028>034-038-045-046-053-281600-
NORTH CENTRAL KENTUCKY

CITY           SKY/WX    TMP DP  RH WIND       PRES   REMARKS
LOUISVILLE/SDF PTSUNNY   67  52  58 S10       29.81F
LOUISVILLE/LOU MOSUNNY   64  55  72 S7        29.82F
FORT KNOX      CLOUDY    66  52  60 S9        29.80F
$$

KYZ035>037-039>044-047>052-055>060-089>105-281600-
NORTHEAST KENTUCKY

CITY           SKY/WX    TMP DP  RH WIND       PRES   REMARKS
LEXINGTON      CLOUDY    68  47  46 SW14      29.88R
COVINGTON      CLOUDY    61  52  72 SE5       29.85R
FRANKFORT      CLOUDY    65  48  54 SW12      29.86R
$$

KYZ054-064>069-076>088-106>120-281600-
SOUTHEAST KENTUCKY

CITY           SKY/WX    TMP DP  RH WIND       PRES   REMARKS
JACKSON        SUNNY     65  48  54 VRB3      29.94S
LONDON         SUNNY     68  46  45 S7        29.95S
SOMERSET       MOSUNNY   64  46  52 S8        29.94F
MIDDLESBORO    SUNNY     61  51  70 CALM      29.99S
MONTICELLO     SUNNY     71  50  47 E6        29.94F
$$





USA.gov is the U.S. government's official web portal to all federal, state and local government web resources and services.